Location: Lake Almanor
(40.2485°N, 121.1442°W)
Time: 23:16:51
(UTC-08:00)

STARLINK-1107 - Pass Details

Date: 31 January 2020
Orbit: 345 x 354 km, 53.0° (Epoch: 23 February)

Event Time Altitude Azimuth Distance (km) Brightness Sun altitude
Rises 19:50:22 0° 294° (WNW) 2,169 7.7 -28.5°
Reaches altitude 10° 19:52:50 10° 273° (W) 1,320 6.5 -29.0°
Enters shadow 19:53:04 11° 269° (W) 1,253 6.4 -29.0°
